TimeEDT,TemperatureF,Dew PointF,Humidity,Sea Level PressureIn,VisibilityMPH,Wind Direction,Wind SpeedMPH,Gust SpeedMPH,PrecipitationIn,Events,Conditions,WindDirDegrees,DateUTC
12:52 AM,55.0,50.0,83,29.98,10.0,Calm,Calm,-,N/A,,Partly Cloudy,0,2013-05-09 04:52:00
1:52 AM,53.1,50.0,89,29.96,10.0,SW,4.6,-,N/A,,Clear,220,2013-05-09 05:52:00
2:52 AM,52.0,48.9,89,29.95,10.0,WSW,4.6,-,N/A,,Clear,240,2013-05-09 06:52:00
3:52 AM,50.0,48.0,93,29.95,10.0,WSW,3.5,-,N/A,,Clear,250,2013-05-09 07:52:00
4:52 AM,50.0,48.0,93,29.94,10.0,WSW,4.6,-,N/A,,Clear,240,2013-05-09 08:52:00
5:52 AM,52.0,48.9,89,29.95,10.0,SW,3.5,-,N/A,,Clear,220,2013-05-09 09:52:00
6:52 AM,52.0,48.0,86,29.97,10.0,WSW,6.9,-,N/A,,Clear,240,2013-05-09 10:52:00
7:52 AM,61.0,51.1,70,29.99,10.0,West,5.8,-,N/A,,Clear,260,2013-05-09 11:52:00
8:52 AM,64.9,52.0,63,29.99,10.0,West,6.9,-,N/A,,Clear,260,2013-05-09 12:52:00
9:52 AM,69.1,52.0,54,29.99,10.0,WNW,6.9,-,N/A,,Clear,300,2013-05-09 13:52:00
10:52 AM,72.0,52.0,49,29.99,10.0,WNW,6.9,-,N/A,,Clear,300,2013-05-09 14:52:00
11:52 AM,75.0,52.0,44,30.00,10.0,NW,9.2,-,N/A,,Clear,320,2013-05-09 15:52:00
12:52 PM,73.0,50.0,44,30.00,10.0,NW,8.1,-,N/A,,Scattered Clouds,310,2013-05-09 16:52:00
1:52 PM,75.2,48.2,38,30.01,10.0,NW,8.1,-,N/A,,Mostly Cloudy,320,2013-05-09 17:52:00
2:52 PM,77.0,48.9,37,29.98,10.0,NW,8.1,-,N/A,,Mostly Cloudy,320,2013-05-09 18:52:00
3:52 PM,77.0,46.4,34,29.99,10.0,NW,3.5,-,N/A,,Mostly Cloudy,310,2013-05-09 19:52:00
4:52 PM,78.1,46.9,33,29.96,10.0,Calm,Calm,-,N/A,,Mostly Cloudy,0,2013-05-09 20:52:00
5:52 PM,78.1,45.0,31,29.94,10.0,WSW,8.1,-,N/A,,Partly Cloudy,250,2013-05-09 21:52:00
6:52 PM,75.0,46.0,36,29.95,10.0,WSW,4.6,-,N/A,,Clear,240,2013-05-09 22:52:00
7:52 PM,73.4,48.2,41,29.97,10.0,SW,3.5,-,N/A,,Clear,230,2013-05-09 23:52:00
8:52 PM,70.0,46.0,42,29.95,10.0,Calm,Calm,-,N/A,,Clear,0,2013-05-10 00:52:00
9:52 PM,66.2,51.8,60,29.97,10.0,Calm,Calm,-,N/A,,Overcast,0,2013-05-10 01:52:00
10:52 PM,68.0,46.9,47,29.96,10.0,West,5.8,-,N/A,,Overcast,270,2013-05-10 02:52:00
11:52 PM,64.0,48.9,58,29.96,10.0,SSW,5.8,-,N/A,,Overcast,200,2013-05-10 03:52:00